User: anonymous   Login
Location: Newark
(45.2862°N, 9.8850°E)
Time: 21:49:33
(UTC+00:00)
Language:

ISS - Orbit

View from above orbital plane
View from above orbital plane
View from above satellite
View from above satellite

Ground track
Ground track

The orbit data is extracted from the following two-line orbital elements,

1 25544U 98067A   20021.55588550  .00016717  00000-0  10270-3 0  9014
2 25544  51.6404 358.9367 0004592 155.4782 204.6587 15.49602749  9126
Epoch (UTC): 21 January 2020 13:20:28
Eccentricity: 0.0004592
inclination: 51.6404°
perigee height: 415 km
apogee height: 421 km
right ascension of ascending node: 358.9367°
argument of perigee: 155.4782°
revolutions per day: 15.49602749
mean anomaly at epoch: 204.6587°
orbit number at epoch: 912

The dashed part of the orbit path shows where the satellite is in the earth's shadow,  

DLR